EHI
41 40 43 44 37 28 24 27 30 29 29 31 33 35 33 26 19 12 7 5 6 7 7 5 4 3 2 2 2 1 0 0 0 0 0 0 0 0 0 0 0 1 3
36 33 33 33 28 24 22 22 24 23 21 24 27 28 27 22 16 10 7 5 6 7 7 5 4 2 1 1 1 0 0 0 0 0 0 0 0 0 0 0 0 1 3
22 22 22 21 18 17 17 15 14 14 14 17 21 21 20 17 12 9 6 4 4 6 7 6 3 2 0 0 0 0 0 0 0 0 0 0 0 0 0 0 0 0 1
9 10 12 12 10 10 10 8 7 9 11 13 16 16 14 11 9 8 6 3 2 3 5 5 3 2 1 0 0 0 0 0 0 0 0 0 0 0 0 0 0 0 0
2 3 4 4 4 4 4 3 4 5 6 7 10 10 9 7 7 7 6 3 3 3 4 4 3 3 2 1 0 0 0 0 0 0 0 0 0 0 0 0 0 0 0
0 0 0 1 1 1 1 1 1 1 1 2 4 5 4 3 3 4 4 3 3 3 3 3 2 2 2 1 0 0 1 1 0 0 0 0 0 0 0 0 0 0 0
0 0 0 0 0 0 0 0 0 0 0 1 2 2 1 1 1 1 1 1 1 1 1 2 2 1 1 0 0 1 2 2 1 0 0 0 0 0 0 0 0 0 0
0 0 0 0 0 0 0 0 0 0 0 0 0 0 0 0 0 0 0 0 0 0 0 1 1 0 0 0 0 1 2 2 1 0 0 0 0 0 0 0 0 0 0
0 0 0 0 0 0 0 0 0 0 0 0 0 0 0 0 0 0 0 0 0 0 0 0 0 0 0 0 0 1 1 1 1 0 0 0 0 0 0 0 0 0 0
0 0 0 0 0 0 0 0 0 0 0 0 0 0 0 0 0 0 0 0 0 0 0 0 0 0 0 0 0 0 0 0 0 0 0 0 0 0 0 0 0 0 0
0 0 0 0 0 0 0 0 0 0 0 0 0 0 0 0 0 0 0 0 0 0 0 0 0 0 0 0 0 0 0 0 0 0 0 0 0 0 0 0 0 0 0
0 0 0 0 0 0 0 0 0 0 0 0 0 0 0 0 0 0 0 0 0 0 0 0 0 0 0 0 0 0 0 0 0 0 0 0 0 0 0 0 0 0 0
0 0 0 0 0 0 0 0 0 0 0 0 0 0 0 0 0 0 0 0 0 0 0 0 0 0 0 0 0 0 0 0 0 0 0 0 0 0 0 0 0 0 0
0 0 0 0 0 0 0 0 0 0 0 0 0 0 0 0 0 0 0 0 0 0 0 0 0 0 0 0 0 0 0 0 0 0 0 0 0 0 0 0 0 0 0
0 0 0 0 0 0 0 0 0 0 0 0 0 0 0 0 0 0 0 0 0 0 0 0 0 0 0 0 0 0 0 0 0 0 0 0 0 0 0 0 0 0 0
0 0 0 0 0 0 0 0 0 0 0 0 0 0 0 0 0 0 0 0 0 0 0 0 0 0 0 0 0 0 0 0 0 0 0 0 0 0 0 0 0 0 0
0 0 0 0 0 0 0 0 0 0 0 0 0 0 0 0 0 0 0 0 0 0 0 0 0 0 0 0 0 0 0 0 0 0 0 0 0 0 0 0 0 0 0
0 0 0 0 0 0 0 0 0 0 0 0 0 0 0 0 0 0 0 0 0 0 0 0 0 0 0 0 0 0 0 0 0 0 0 0 0 0 0 0 0 0 0
0 0 0 0 0 0 0 0 0 0 0 0 0 0 0 0 0 0 0 0 0 0 0 0 0 0 0 0 0 0 0 0 0 0 0 0 0 0 0 0 0 0 0
0 0 0 0 0 0 0 0 0 0 0 0 0 0 0 0 0 0 0 0 0 0 0 0 0 0 0 0 0 0 0 0 0 0 0 0 0 0 0 0 0 0 0
0 0 0 0 0 0 0 0 0 0 0 0 0 0 0 0 0 0 0 0 0 0 0 0 0 0 0 0 0 0 0 0 0 0 0 0 0 0 0 0 0 0 0
0 0 0 0 0 0 0 0 0 0 0 0 0 0 0 0 0 0 0 0 0 0 0 0 0 0 0 0 0 0 0 0 0 0 0 0 0 0 0 0 0 0 0
0 0 0 0 0 0 0 0 0 0 0 0 0 0 0 0 0 0 0 0 0 0 0 0 0 0 0 0 0 0 0 0 0 0 0 0 0 0 0 0 0 0 0
0 0 0 0 0 0 0 0 0 0 0 0 0 0 0 0 0 0 0 0 0 0 0 0 0 0 0 0 0 0 0 0 0 0 0 0 0 0 0 0 0 0 0
0 0 0 0 0 0 0 0 0 0 0 0 0 0 0 0 0 0 0 0 0 0 0 0 0 0 0 0 0 0 0 0 0 0 0 0 0 0 0 0 0 0 0
0 0 0 0 0 0 0 0 0 0 0 0 0 0 0 0 0 0 0 0 0 0 0 0 0 0 0 0 0 0 0 0 0 0 0 0 0 0 0 0 0 0 0
Wind_Speed
8 9 9 9 10 6 3 4 3 2 2 2 1 1 2 1 1 2 3 4 4 5 4 3 2 2 1 1 1 1 1 2 1 1 3 4 4 5 5 4 4 5 6
9 9 8 7 8 4 1 3 3 2 2 2 2 1 2 2 2 1 2 3 4 4 4 4 3 2 2 1 1 1 0 1 0 1 1 3 4 3 3 2 3 4 3
9 9 8 8 7 5 5 4 2 1 1 1 1 1 1 1 1 1 1 1 3 4 4 5 4 3 3 2 2 2 2 1 1 1 2 1 2 4 4 3 2 2 2
7 8 9 10 9 7 7 6 5 4 3 3 3 3 2 1 1 1 1 1 1 2 3 4 5 4 3 3 3 3 3 2 2 1 2 3 3 2 4 4 3 3 3
6 8 8 8 8 7 7 6 6 7 6 6 6 5 3 1 1 2 3 2 3 3 3 3 4 4 3 4 4 3 3 3 3 3 2 2 2 3 3 4 4 3 3
4 5 6 6 7 6 6 6 7 7 7 7 7 6 5 5 4 4 3 3 3 3 4 3 2 3 3 4 4 4 4 4 4 3 3 3 3 3 3 4 4 4 4
3 3 4 5 5 5 5 5 6 6 6 7 6 6 5 5 4 4 3 3 3 3 4 4 3 2 3 4 4 4 4 5 5 5 4 4 4 4 3 4 4 4 3
3 3 3 4 3 3 3 3 4 3 3 4 3 3 3 2 2 3 2 2 2 3 4 4 4 4 3 3 4 4 5 4 5 6 5 4 4 4 4 4 3 4 3
2 2 2 3 3 3 2 3 3 1 1 1 1 2 2 2 2 2 2 2 3 3 4 4 4 4 4 4 4 4 5 5 5 6 6 5 4 4 4 4 4 4 4
3 3 3 3 3 3 3 3 3 3 2 2 2 2 2 2 2 2 3 4 4 4 4 5 5 5 5 5 4 4 5 6 6 5 6 6 5 4 4 4 4 5 5
3 4 4 4 4 4 4 3 4 4 4 4 4 4 4 4 4 4 5 5 4 5 5 5 5 5 5 5 5 5 6 6 6 6 7 7 6 5 4 4 4 4 4
4 4 4 4 3 3 4 4 5 5 6 6 5 6 6 5 5 6 6 6 6 6 6 6 5 6 6 5 5 7 7 6 7 7 7 7 6 6 5 4 5 5 5
4 3 3 3 3 4 5 5 6 7 7 6 6 7 7 7 7 7 7 7 7 7 6 6 6 6 6 6 6 6 7 7 7 7 7 8 7 7 5 5 5 4 4
4 3 3 4 5 6 7 7 7 8 7 7 7 8 8 9 9 8 8 7 7 7 7 7 6 6 6 7 7 6 7 7 7 7 7 8 8 8 7 6 6 5 5
3 3 5 6 7 7 8 8 8 8 8 8 8 9 9 9 8 8 8 8 7 8 7 7 6 6 6 6 6 6 7 7 7 7 7 8 9 10 8 6 6 6 5
6 7 7 7 8 8 8 8 9 9 8 8 9 9 8 8 8 9 8 8 8 7 7 7 7 7 7 9 11 9 7 7 7 7 7 7 8 10 11 12 11 10 9
8 8 8 8 9 9 9 9 10 9 8 9 9 8 8 8 9 9 8 8 8 7 7 8 7 8 9 13 13 13 8 7 7 7 7 7 6 7 5 7 9 10 12
9 9 9 9 9 9 9 9 9 9 8 8 9 8 8 8 8 8 8 8 7 7 7 8 8 8 10 13 13 13 8 7 8 8 8 7 7 7 7 6 5 5 6
10 10 10 10 9 9 10 9 9 8 8 9 9 9 8 8 8 8 8 8 7 7 7 7 8 8 10 13 13 12 6 6 8 8 8 8 8 10 10 8 7 5 3
10 10 9 9 9 10 9 8 8 8 9 9 9 9 8 8 8 9 8 7 7 8 7 7 8 8 9 12 14 12 5 6 7 6 7 10 10 11 12 9 9 9 6
10 9 9 8 9 9 8 8 8 9 9 9 9 8 8 8 9 8 7 7 7 6 7 7 7 8 9 11 13 12 6 6 6 6 5 5 11 12 12 10 8 11 10
9 9 8 9 9 9 9 10 11 11 10 9 9 9 8 8 8 7 6 6 6 6 6 6 7 6 6 8 9 11 10 8 6 6 5 5 10 11 11 8 10 13 11
9 9 9 11 10 10 9 11 11 10 9 9 9 9 9 7 7 6 7 6 5 5 5 5 6 5 4 5 8 7 8 8 5 4 5 6 10 10 8 11 14 12 8
10 9 10 12 12 11 11 11 11 10 9 10 10 9 8 7 6 5 5 5 5 5 5 5 5 5 4 3 3 2 3 4 4 3 4 6 9 7 8 10 9 6 7
9 9 11 12 14 13 12 12 11 9 10 9 9 8 7 6 6 6 5 6 6 6 6 6 5 4 4 5 6 4 3 3 3 4 3 4 5 5 6 6 6 6 7
11 11 12 13 14 13 13 12 10 9 9 8 8 6 5 5 5 5 6 8 9 10 12 11 8 5 7 6 6 6 5 5 7 5 4 5 6 7 7 8 7 6 7
Wind_Direction
78 73 68 71 77 67 60 157 162 175 190 219 227 192 240 249 240 221 185 171 167 157 151 153 156 148 163 223 244 234 268 270 251 304 307 292 268 257 249 240 238 242 242
72 70 72 73 72 78 76 122 130 180 197 191 238 201 199 220 227 223 172 168 163 163 162 164 173 171 166 232 271 186 213 277 218 161 325 328 330 319 282 256 240 249 247
77 72 70 68 65 54 52 62 70 69 68 214 213 213 71 46 17 335 259 211 184 178 176 180 184 187 177 197 220 196 177 228 273 187 175 207 277 309 313 305 279 274 264
53 60 62 61 56 49 48 53 45 35 18 23 52 68 75 83 278 276 307 289 247 226 209 194 190 194 191 200 216 193 182 179 235 266 212 199 201 241 305 313 307 296 279
51 62 65 67 62 56 57 54 55 46 35 39 39 47 45 28 346 13 13 341 318 301 274 232 206 201 203 210 214 210 202 192 201 212 222 229 225 212 223 280 302 314 290
65 75 76 75 67 61 60 55 50 41 32 37 36 37 35 20 18 17 7 347 336 337 339 323 255 227 218 217 216 217 218 218 218 217 209 206 211 215 214 249 275 286 283
91 98 95 88 82 74 69 66 63 45 34 39 34 30 32 29 22 6 5 358 350 345 341 343 313 275 249 241 228 219 224 220 223 224 223 218 219 210 208 232 262 272 284
142 132 123 119 117 112 100 89 82 64 40 42 29 19 23 24 4 357 356 349 333 317 324 326 321 311 292 278 258 244 234 228 228 234 228 225 228 214 209 212 230 273 282
161 154 150 139 145 148 148 138 123 105 50 31 9 354 353 349 333 329 330 317 305 307 323 317 314 313 308 296 280 261 252 241 236 236 233 232 232 220 218 214 205 217 257
183 177 175 177 177 172 170 160 161 182 212 224 242 244 258 268 278 294 299 294 292 296 304 306 306 303 301 296 284 273 265 254 248 240 236 238 233 227 220 215 212 208 216
197 199 195 190 187 185 184 192 204 215 230 236 239 246 251 253 256 261 266 270 274 284 288 288 289 291 290 290 289 280 273 264 260 253 242 242 233 226 224 214 212 212 204
225 225 222 218 211 209 217 225 233 236 239 239 240 244 248 251 253 255 259 261 265 268 270 276 280 280 284 283 282 283 284 267 259 255 247 245 240 229 222 214 217 215 205
273 273 275 269 249 243 246 246 246 247 248 244 242 245 248 248 248 251 254 256 257 261 262 262 266 271 275 276 273 271 276 269 258 252 248 245 235 233 225 217 218 216 211
314 311 294 269 257 254 253 252 252 249 247 242 239 240 243 243 246 249 251 252 252 254 257 255 254 258 264 269 268 269 269 269 264 255 248 243 230 227 222 219 216 208 201
327 293 270 260 261 262 260 254 251 250 246 241 238 240 241 241 243 246 247 248 248 253 250 250 253 256 262 265 268 270 276 271 269 264 253 244 236 227 220 214 204 195 192
286 279 273 267 262 259 257 253 251 250 243 239 240 242 243 242 242 243 242 244 247 249 246 245 247 251 263 273 276 273 271 266 260 262 261 253 240 232 228 220 207 195 189
279 277 272 261 258 256 253 253 251 250 246 242 244 243 240 240 242 246 244 238 242 242 243 243 242 246 253 261 266 271 266 258 253 251 253 253 240 222 216 212 209 207 201
284 278 270 266 262 260 261 259 259 255 250 248 248 245 242 245 248 246 243 242 239 236 239 242 243 246 256 259 261 268 266 254 251 247 243 238 234 218 200 191 189 194 197
279 275 272 271 272 272 272 273 270 264 258 253 249 246 243 246 246 244 243 243 239 238 237 238 241 245 255 258 259 263 259 253 252 250 244 231 225 216 196 181 175 170 176
284 284 285 286 286 285 284 282 279 278 274 269 262 256 252 249 246 244 244 244 236 237 240 242 240 241 249 256 257 257 245 250 253 250 241 227 215 205 192 182 172 169 164
296 298 300 299 293 293 294 288 284 277 273 274 268 262 255 253 251 248 246 242 239 241 243 249 250 246 248 258 259 256 236 235 243 241 235 221 203 198 194 184 177 169 156
306 306 304 299 294 293 292 288 283 280 278 277 273 268 262 260 267 251 249 243 238 241 246 250 258 255 252 253 260 258 245 232 228 235 228 211 194 191 187 179 162 152 145
305 304 302 302 301 298 294 291 288 288 287 284 278 272 268 260 256 250 250 251 242 237 242 240 247 257 254 253 254 253 248 235 220 225 215 196 184 179 179 164 154 149 144
304 302 304 305 304 300 295 288 287 287 285 283 280 274 268 263 257 251 246 243 240 237 239 236 239 247 251 247 238 235 232 224 208 199 178 170 175 171 157 152 152 146 141
303 305 308 307 305 303 299 296 293 288 285 285 282 275 264 260 260 254 246 240 235 228 226 230 223 224 242 242 221 207 208 202 192 159 148 150 158 162 150 145 136 129 127
313 313 310 307 306 305 302 300 294 286 284 285 282 274 264 260 257 258 269 256 247 251 242 237 228 228 230 222 212 204 199 198 170 158 161 160 161 160 153 148 136 132 133